Location: Unspecified
(0.0000°N, 0.0000°E)
Time: 22:32:00
(UTC+00:00)

Amsat-Oscar-6 - Pass Details

Date: 22 June 2019
Orbit: 1448 x 1455 km, 101.8° (Epoch: 22 October)

Event Time Altitude Azimuth Distance (km) Brightness Sun altitude
Rises 03:23:37 0° 13° (NNE) 4,542 ? -35.8°
Reaches altitude 10° 03:26:23 10° 11° (NNE) 3,566 ? -35.2°
Maximum altitude 03:34:42 78° 286° (WNW) 1,483 ? -33.3°
Enters shadow 03:35:00 77° 263° (W) 1,487 ? -33.3°
